Weather History for CYYJ - March, 2014

Change the Weather History Date:

Wednesday, March 26, 2014

  Actual Average Record
Temperature  
Mean Temperature 46 °F -  
Max Temperature 51 °F 54 °F 59 °F (2015)
Min Temperature 41 °F 38 °F 32 °F (2009)
Degree Days  
Heating Degree Days 19    
Moisture  
Dew Point 42 °F    
Average Humidity 81    
Maximum Humidity 100    
Minimum Humidity 61    
Precipitation  
Precipitation 0.04 in 0.06 in - ()
Sea Level Pressure  
Sea Level Pressure 29.55 in    
Wind  
Wind Speed 9 mph ()    
Max Wind Speed 17 mph    
Max Gust Speed 23 mph    
Visibility 12.9 miles    
Events Rain    
Averages and records for this station are not official NWS values.
T = Trace of Precipitation, MM = Missing Value Source: Averaged Metar Reports

Daily Weather History Graph

Daily Weather History Graph

Search for Another Location

Airport or City:

Trip Planner

Search our weather history database for the weather conditions in past years. The results will help you decide how hot, cold, wet, or windy it might be!

Date:

Astronomy

Mar. 26, 2014 Rise Set
Actual Time 7:03 AM PDT 7:35 PM PDT
Civil Twilight 6:32 AM PDT 8:07 PM PDT
Nautical Twilight 5:54 AM PDT 8:44 PM PDT
Astronomical Twilight 5:15 AM PDT 9:24 PM PDT
Moon 4:37 AM PDT (3/26) 3:01 PM PDT (3/26)
Length of Visible Light 13h 35m
Length of Day
12h 31m
Waning Crescent, 21% of the Moon is Illuminated
Mar 26
Waning Crescent
Mar 30
New
Apr 7
First Quarter
Apr 15
Full
Apr 22
Last Quarter

Hourly Weather History & Observations

Time (PDT) Temp. Windchill Dew Point Humidity Pressure Visibility Wind Dir Wind Speed Gust Speed Precip Events Conditions
12:00 AM 44.6 °F 39.7 °F 41.0 °F 87% 29.55 in 20.0 mi SSW 9.2 mph - N/A Rain Light Rain
12:45 AM 46.4 °F 40.7 °F 41.0 °F 81% 29.56 in 30.0 mi SSW 12.7 mph - N/A   Overcast
1:00 AM 46.4 °F 41.1 °F 41.0 °F 81% 29.56 in 30.0 mi South 11.5 mph - N/A   Mostly Cloudy
1:45 AM 46.4 °F 39.5 °F 41.0 °F 81% 29.57 in 20.0 mi SSW 17.3 mph 23.0 mph N/A Rain Light Rain
2:00 AM 44.6 °F 37.4 °F 41.0 °F 87% 29.58 in 20.0 mi SSW 16.1 mph - N/A Rain Light Rain
2:45 AM 44.6 °F 38.1 °F 39.2 °F 81% 29.57 in 30.0 mi SW 13.8 mph - N/A   Overcast
3:00 AM 44.6 °F 38.4 °F 39.2 °F 81% 29.58 in 30.0 mi SW 12.7 mph - N/A   Overcast
4:00 AM 44.6 °F 40.2 °F 39.2 °F 81% 29.58 in 30.0 mi SSW 8.1 mph - N/A   Overcast
5:00 AM 45 °F - 40 °F 77% 29.58 in 28 mi ESE 4.6 mph - -   Partly Cloudy
5:00 AM 44.6 °F 41.4 °F 39.2 °F 81% 29.58 in 30.0 mi ESE 5.8 mph - N/A   Overcast
6:00 AM 42.8 °F 39.3 °F 41.0 °F 93% 29.58 in 30.0 mi SSE 5.8 mph - N/A   Mostly Cloudy
7:00 AM 42.8 °F 40.1 °F 41.0 °F 93% 29.57 in 20.0 mi East 4.6 mph - N/A   Mostly Cloudy
8:00 AM 41.0 °F - 41.0 °F 100% 29.57 in 30.0 mi East 2.3 mph - N/A   Mostly Cloudy
9:00 AM 46.4 °F 44.3 °F 42.8 °F 87% 29.57 in 30.0 mi SSE 4.6 mph - N/A   Mostly Cloudy
10:00 AM 48.2 °F - 41.0 °F 76% 29.57 in 30.0 mi South 4.6 mph - N/A   Mostly Cloudy
11:00 AM 48 °F - 41 °F 70% 29.57 in 28 mi SSE 9.2 mph - -   Partly Cloudy
11:00 AM 48.2 °F - 41.0 °F 76% 29.57 in 30.0 mi SE 9.2 mph - N/A   Mostly Cloudy
12:00 PM 48.2 °F - 41.0 °F 76% 29.57 in 30.0 mi ESE 4.6 mph - N/A   Mostly Cloudy
1:00 PM 50.0 °F - 42.8 °F 76% 29.55 in 30.0 mi East 10.4 mph - N/A   Mostly Cloudy
1:16 PM 50.0 °F - 42.8 °F 76% 29.56 in 30.0 mi ESE 13.8 mph - N/A   Mostly Cloudy
2:00 PM 50.0 °F - 41.0 °F 71% 29.55 in 30.0 mi SE 16.1 mph - N/A   Mostly Cloudy
3:00 PM 50.0 °F - 41.0 °F 71% 29.54 in 30.0 mi SE 10.4 mph - N/A   Overcast
4:00 PM 50.0 °F - 41.0 °F 71% 29.53 in 30.0 mi SE 9.2 mph - N/A   Overcast
5:00 PM 50 °F - 41 °F 61% 29.52 in 28 mi ESE 8.1 mph - -   Overcast
5:00 PM 50.0 °F - 41.0 °F 71% 29.52 in 30.0 mi ESE 6.9 mph - N/A   Overcast
6:00 PM 50.0 °F - 41.0 °F 71% 29.52 in 30.0 mi ENE 5.8 mph - N/A   Overcast
7:00 PM 50.0 °F - 41.0 °F 71% 29.51 in 30.0 mi ENE 4.6 mph - N/A   Overcast
7:32 PM 48.2 °F - 41.0 °F 76% 29.52 in 30.0 mi East 5.8 mph - N/A Rain Light Rain
8:00 PM 48.2 °F - 42.8 °F 82% 29.52 in 30.0 mi East 5.8 mph - N/A Rain Light Rain
9:00 PM 46.4 °F 42.4 °F 42.8 °F 87% 29.53 in 20.0 mi East 8.1 mph - N/A Rain Light Rain
10:00 PM 46.4 °F 42.4 °F 44.6 °F 93% 29.53 in 10.0 mi NE 8.1 mph - N/A Rain Light Rain
10:24 PM 46.4 °F 42.4 °F 44.6 °F 93% 29.54 in 8.0 mi NE 8.1 mph - N/A Rain Light Rain
11:00 PM 46 °F - 45 °F 96% 29.54 in 7 mi NE 9.2 mph - - Rain Light Rain
11:00 PM 46.4 °F 42.4 °F 44.6 °F 93% 29.54 in 8.0 mi NE 8.1 mph - N/A Rain Light Rain
11:16 PM 46.4 °F 41.9 °F 44.6 °F 93% 29.55 in 6.0 mi NE 9.2 mph - N/A Rain Light Rain
11:27 PM 46.4 °F 42.9 °F 44.6 °F 93% 29.55 in 3.0 mi NE 6.9 mph - N/A Rain Light Rain